This demonstration page uses our WeatherBlox Daily Observations layout. Learn more.

Left ArrowRight Arrow

Hourly Observations for July 23, 2017

Temp ( °F °C ) Dew Point ( °F °C ) Humidity (%) Winds ( mph kmh ) Pressure ( in mb ) Visibility ( mi km ) Precip ( " mm )
12:53 am 00:53 Clear 79 26.1 59 15 50 50 Calm 29.79 1009 10 16 0.00 0.00
1:53 am 01:53 Clear 77 25 58 14.4 52 52 Calm 29.78 1008 10 16 0.00 0.00
2:53 am 02:53 Clear 75 23.9 59 15 58 58 NNW 5 7 29.78 1008 10 16 0.00 0.00
3:53 am 03:53 Clear 76 24.4 58 14.4 54 54 Calm 29.78 1008 10 16 0.00 0.00
4:53 am 04:53 Clear 75 23.9 58 14.4 55 55 NNW 3 6 29.78 1009 10 16 0.00 0.00
5:53 am 05:53 Clear 75 23.9 59 15 58 58 NNW 3 6 29.78 1009 10 16 0.00 0.00
6:53 am 06:53 Sunny 74 23.3 59 15 60 60 Calm 29.79 1009 10 16 0.00 0.00
7:53 am 07:53 Sunny 80 26.7 59 15 49 49 Calm 29.80 1009 10 16 0.00 0.00
8:53 am 08:53 Sunny 84 28.9 56 13.3 38 38 Calm 29.80 1009 10 16 0.00 0.00
9:53 am 09:53 Sunny 86 30 60 15.6 42 42 W 6 9 29.80 1009 10 16 0.00 0.00
10:53 am 10:53 Sunny 91 32.8 57 13.9 32 32 Calm 29.79 1009 10 16 0.00 0.00
11:53 am 11:53 Sunny 97 36.1 52 11.1 22 22 WNW 3 6 29.78 1008 10 16 0.00 0.00
12:53 pm 12:53 Sunny 99 37.2 52 11.1 21 21 NE 3 6 29.75 1008 10 16 0.00 0.00
1:53 pm 13:53 Sunny 100 37.8 46 7.8 16 16 Calm 29.74 1007 10 16 0.00 0.00
2:53 pm 14:53 Sunny 101 38.3 51 10.6 19 19 S 8 13 29.72 1007 10 16 0.00 0.00
3:53 pm 15:53 Sunny 104 40 43 6.1 12 12 S 9 15 29.70 1006 10 16 0.00 0.00
4:53 pm 16:53 Sunny 104 40 40 4.4 11 11 S 12 19 29.68 1005 10 16 0.00 0.00
5:53 pm 17:53 Sunny 104 40 40 4.4 11 11 S 13 20 29.67 1005 10 16 0.00 0.00
6:53 pm 18:53 Sunny 101 38.3 37 2.8 11 11 S 10 17 29.66 1004 10 16 0.00 0.00
7:53 pm 19:53 Sunny 97 36.1 36 2.2 12 12 S 8 13 29.66 1005 10 16 0.00 0.00
8:53 pm 20:53 Clear 90 32.2 41 5 18 18 SE 3 6 29.68 1005 10 16 0.00 0.00
9:53 pm 21:53 Clear 86 30 44 6.7 23 23 Calm 29.70 1006 10 16 0.00 0.00
10:53 pm 22:53 Clear 81 27.2 46 7.8 29 29 N 5 7 29.71 1006 10 16 0.00 0.00
11:53 pm 23:53 Clear 79 26.1 48 8.9 34 34 Calm 29.72 1007 10 16 0.00 0.00

Powered by AerisWeather